Fort Drum, NY

4:06 AM EST on November 19, 2017 (GMT -0500)
Wheeler-Sack Army Air Field

Weather History for KGTB - April, 2013

Change the Weather History Date:

Monday, April 29, 2013

  Actual Average Record
Temperature  
Mean Temperature 54 °F -  
Max Temperature 59 °F 58 °F 77 °F (2004)
Min Temperature 50 °F 37 °F 26 °F (2001)
Degree Days  
Heating Degree Days 10    
Growing Degree Days 4 (Base 50)    
Moisture  
Dew Point 47 °F    
Average Humidity 78    
Maximum Humidity 94    
Minimum Humidity 57    
Precipitation  
Precipitation 0.05 in - - ()
Sea Level Pressure  
Sea Level Pressure 30.10 in    
Wind  
Wind Speed 12 mph (SSE)    
Max Wind Speed 18 mph    
Max Gust Speed 25 mph    
Visibility 10 miles    
Events Rain    
Averages and records for this station are not official NWS values.
T = Trace of Precipitation, MM = Missing Value Source: NWS Daily Summary

Daily Weather History Graph

Daily Weather History Graph

Search for Another Location

Airport or City:

Trip Planner

Search our weather history database for the weather conditions in past years. The results will help you decide how hot, cold, wet, or windy it might be!

Date:

Astronomy

Apr. 29, 2013 Rise Set
Actual Time 5:56 AM EDT 8:04 PM EDT
Civil Twilight 5:25 AM EDT 8:35 PM EDT
Nautical Twilight 4:46 AM EDT 9:14 PM EDT
Astronomical Twilight 4:04 AM EDT 9:57 PM EDT
Moon No Moon Rise 9:11 AM EDT (4/29)
Length of Visible Light 15h 10m
Length of Day
14h 07m
Waning Gibbous, 80% of the Moon is Illuminated
Apr 29
Waning Gibbous
May 2
Last Quarter
May 9
New
May 18
First Quarter
May 25
Full

Hourly Weather History & Observations

Time (EDT) Temp. Dew Point Humidity Pressure Visibility Wind Dir Wind Speed Gust Speed Precip Events Conditions
12:55 AM 55.9 °F 41.7 °F 59% 30.10 in 10.0 mi West 5.8 mph - N/A   Clear
1:55 AM 56.3 °F 41.0 °F 57% 30.10 in 10.0 mi SW 9.2 mph - N/A   Clear
2:55 AM 55.6 °F 43.2 °F 63% 30.10 in 10.0 mi South 15.0 mph 25.3 mph N/A   Clear
3:39 AM 53.6 °F 44.6 °F 72% 30.10 in 10.0 mi SSE 15.0 mph - N/A   Light Drizzle
3:55 AM 53.4 °F 45.5 °F 75% 30.10 in 10.0 mi SSE 11.5 mph - 0.00 in   Light Drizzle
4:21 AM 53.6 °F 46.4 °F 77% 30.09 in 10.0 mi SSE 13.8 mph - N/A   Mostly Cloudy
4:26 AM 53.6 °F 44.6 °F 72% 30.09 in 10.0 mi SSE 12.7 mph - N/A   Light Drizzle
4:50 AM 51.8 °F 46.4 °F 82% 30.10 in 10.0 mi SSE 13.8 mph - N/A   Mostly Cloudy
4:54 AM 51.8 °F 46.4 °F 82% 30.09 in 10.0 mi SSE 15.0 mph - N/A Rain Light Rain
4:55 AM 52.3 °F 45.9 °F 79% 30.09 in 10.0 mi SSE 15.0 mph - 0.00 in   Light Drizzle
5:05 AM 51.8 °F 46.4 °F 82% 30.09 in 10.0 mi SSE 11.5 mph - N/A   Mostly Cloudy
5:55 AM 52.2 °F 45.0 °F 76% 30.09 in 10.0 mi SE 13.8 mph - 0.00 in   Overcast
6:55 AM 52.2 °F 44.6 °F 75% 30.09 in 10.0 mi SSE 16.1 mph - N/A   Overcast
7:55 AM 52.0 °F 45.1 °F 77% 30.10 in 10.0 mi SSE 11.5 mph - N/A   Overcast
8:07 AM 51.8 °F 44.6 °F 76% 30.10 in 10.0 mi SSE 12.7 mph - N/A Rain Light Rain
8:26 AM 51.8 °F 46.4 °F 82% 30.11 in 10.0 mi SSE 11.5 mph - N/A   Overcast
8:44 AM 51.8 °F 46.4 °F 82% 30.10 in 10.0 mi SSE 16.1 mph - N/A Rain Light Rain
8:55 AM 51.1 °F 47.1 °F 86% 30.10 in 10.0 mi SSE 13.8 mph - 0.00 in Rain Light Rain
9:05 AM 50.0 °F 48.2 °F 94% 30.10 in 10.0 mi SSE 12.7 mph - N/A   Overcast
9:55 AM 51.6 °F 46.9 °F 84% 30.09 in 10.0 mi SSE 12.7 mph - 0.00 in   Overcast
9:56 AM 51.8 °F 46.4 °F 82% 30.09 in 10.0 mi SSE 12.7 mph - N/A   Light Drizzle
10:29 AM 51.8 °F 48.2 °F 88% 30.10 in 10.0 mi SSE 10.4 mph - N/A   Overcast
10:55 AM 53.1 °F 46.9 °F 80% 30.10 in 10.0 mi SSE 10.4 mph - 0.00 in   Overcast
11:55 AM 54.7 °F 46.8 °F 75% 30.09 in 10.0 mi SSE 10.4 mph - N/A   Overcast
12:27 PM 55.4 °F 48.2 °F 77% 30.09 in 10.0 mi SSE 15.0 mph - N/A   Light Drizzle
12:53 PM 55.4 °F 48.2 °F 77% 30.09 in 10.0 mi SSE 15.0 mph - N/A   Overcast
12:55 PM 55.8 °F 49.1 °F 78% 30.09 in 10.0 mi SSE 13.8 mph - 0.00 in   Overcast
1:55 PM 59.4 °F 49.1 °F 69% 30.07 in 10.0 mi SSE 11.5 mph - N/A   Overcast
2:55 PM 59.2 °F 48.4 °F 67% 30.07 in 10.0 mi SSE 13.8 mph 23.0 mph N/A   Overcast
3:20 PM 59.0 °F 48.2 °F 67% 30.08 in 10.0 mi SSE 11.5 mph - N/A   Light Drizzle
3:44 PM 57.2 °F 50.0 °F 77% 30.08 in 10.0 mi South 17.3 mph 24.2 mph N/A   Overcast
3:55 PM 57.7 °F 49.8 °F 75% 30.08 in 10.0 mi South 16.1 mph - 0.00 in   Overcast
4:55 PM 57.9 °F 48.7 °F 71% 30.07 in 10.0 mi SSE 13.8 mph - N/A   Overcast
5:19 PM 59.0 °F 50.0 °F 72% 30.07 in 10.0 mi SSE 11.5 mph 20.7 mph N/A   Overcast
5:55 PM 57.9 °F 48.7 °F 71% 30.08 in 10.0 mi SSE 12.7 mph 23.0 mph N/A   Overcast
6:41 PM 57.2 °F 48.2 °F 72% 30.09 in 10.0 mi SSE 11.5 mph - N/A   Mostly Cloudy
6:51 PM 57.2 °F 48.2 °F 72% 30.09 in 10.0 mi SSE 11.5 mph - N/A   Mostly Cloudy
6:55 PM 56.8 °F 49.1 °F 75% 30.09 in 10.0 mi SSE 11.5 mph - N/A   Overcast
7:42 PM 55.4 °F 50.0 °F 82% 30.10 in 10.0 mi SSE 11.5 mph - N/A   Overcast
7:55 PM 55.2 °F 49.5 °F 81% 30.10 in 10.0 mi SSE 11.5 mph - N/A   Overcast
8:55 PM 54.1 °F 49.1 °F 83% 30.12 in 10.0 mi SSE 15.0 mph - N/A   Overcast
9:55 PM 53.6 °F 48.6 °F 83% 30.12 in 10.0 mi SSE 18.4 mph 24.2 mph N/A   Overcast
10:55 PM 52.7 °F 48.7 °F 86% 30.12 in 10.0 mi SSE 16.1 mph - N/A   Overcast
11:07 PM 51.8 °F 48.2 °F 88% 30.12 in 10.0 mi SSE 16.1 mph - N/A Rain Light Rain
11:34 PM 51.8 °F 50.0 °F 94% 30.12 in 10.0 mi SSE 13.8 mph - N/A   Overcast
11:40 PM 51.8 °F 50.0 °F 94% 30.12 in 9.0 mi SSE 13.8 mph - N/A Rain Rain
11:55 PM 51.6 °F 49.6 °F 93% 30.12 in 10.0 mi SSE 15.0 mph - 0.05 in Rain Light Rain
11:57 PM 51.8 °F 50.0 °F 94% 30.12 in 10.0 mi SSE 15.0 mph - N/A   Overcast